CDT,Max TemperatureF,Mean TemperatureF,Min TemperatureF,Max Dew PointF,MeanDew PointF,Min DewpointF,Max Humidity, Mean Humidity, Min Humidity, Max Sea Level PressureIn, Mean Sea Level PressureIn, Min Sea Level PressureIn, Max VisibilityMiles, Mean VisibilityMiles, Min VisibilityMiles, Max Wind SpeedMPH, Mean Wind SpeedMPH, Max Gust SpeedMPH,PrecipitationIn, CloudCover, Events, WindDirDegrees
2012-8-1,93,86,80,74,68,59,74,57,41,30.01,29.94,29.89,10,10,6,18,6,22,0.00,3,Rain-Thunderstorm,240
2012-8-2,92,86,80,72,70,68,72,59,45,29.98,29.92,29.89,10,10,10,12,3,,0.00,1,Thunderstorm,191
2012-8-3,92,84,77,72,69,62,72,61,39,30.00,29.96,29.89,10,10,6,21,8,22,0.02,3,Rain-Thunderstorm,202
2012-8-4,91,83,76,72,68,63,78,66,40,30.08,30.02,29.94,10,8,1,12,6,,0.29,6,Rain-Thunderstorm,158
2012-8-5,90,83,76,70,67,64,75,58,43,30.13,30.08,30.03,10,10,10,13,6,,0.00,2,,114
2012-8-6,92,83,74,72,68,63,79,69,37,30.07,30.01,29.96,10,7,0,21,5,25,1.22,4,Rain-Thunderstorm,11
2012-8-7,89,82,74,69,67,64,73,63,49,30.00,29.97,29.93,10,10,10,9,5,,0.01,1,,12
2012-8-8,91,84,77,71,68,63,74,63,40,30.04,30.01,29.95,10,8,1,15,5,,0.64,4,Rain-Thunderstorm,184
2012-8-9,86,78,71,70,67,61,76,68,48,30.01,29.98,29.91,10,8,0,17,4,22,0.82,5,Rain-Thunderstorm,237
2012-8-10,88,80,73,70,68,64,75,60,51,29.94,29.90,29.85,10,10,10,21,9,26,0.01,2,Rain-Thunderstorm,241
2012-8-11,85,80,75,70,67,63,74,66,53,30.00,29.92,29.87,10,9,2,15,6,23,0.19,5,Rain-Thunderstorm,245
2012-8-12,88,80,73,68,63,52,72,55,31,30.05,30.01,29.97,10,10,10,12,6,,0.00,1,,146
2012-8-13,90,84,78,72,69,65,72,61,48,30.06,30.00,29.95,10,10,7,18,7,20,0.03,3,Rain-Thunderstorm,228
2012-8-14,91,85,79,71,69,64,67,60,45,30.01,29.96,29.91,10,10,9,18,9,24,0.00,2,Thunderstorm,242
2012-8-15,91,84,77,72,69,61,74,61,41,30.02,29.97,29.92,10,9,2,15,5,20,0.04,3,Rain-Thunderstorm,256
2012-8-16,91,82,75,72,69,65,73,62,46,30.06,30.03,29.98,10,10,10,15,6,23,0.00,3,Rain-Thunderstorm,229
2012-8-17,88,80,74,70,67,63,75,64,45,30.06,30.00,29.94,10,10,10,23,6,32,0.00,2,Rain-Thunderstorm,18
2012-8-18,87,80,75,70,68,66,78,71,54,29.97,29.92,29.90,10,10,10,16,3,25,0.01,6,Rain-Thunderstorm,248
2012-8-19,79,76,73,68,67,66,78,73,65,29.95,29.91,29.86,10,8,2,12,4,,0.57,5,Rain-Thunderstorm,224
2012-8-20,83,77,71,67,64,62,76,63,51,29.93,29.90,29.87,10,10,10,8,3,,0.00,3,,123
2012-8-21,87,79,71,66,64,57,83,66,37,30.02,29.98,29.91,10,10,2,9,5,,0.00,3,,32
2012-8-22,89,80,72,68,61,50,78,55,27,30.08,30.04,30.00,10,10,10,12,6,,0.00,1,,50
2012-8-23,88,79,70,69,63,51,80,60,28,30.10,30.06,30.03,10,10,10,12,4,,0.00,1,,134
2012-8-24,88,80,73,71,69,66,85,68,51,30.09,30.04,30.00,10,10,10,12,5,,0.00,2,Thunderstorm,127
2012-8-25,88,81,74,70,68,66,81,64,49,30.07,30.03,30.00,10,10,10,15,7,,0.00,1,,113
2012-8-26,90,81,73,72,69,65,84,68,48,30.10,30.03,29.99,10,10,6,10,6,,0.00,0,,80
2012-8-27,92,82,72,70,65,57,77,56,32,29.99,29.88,29.76,10,10,10,17,10,26,0.00,2,Rain,30
2012-8-28,85,80,75,77,73,71,94,85,70,29.75,29.61,29.52,10,8,2,32,20,46,1.24,7,Rain,55
2012-8-29,80,78,76,73,71,69,83,78,70,29.63,29.55,29.50,10,3,0,41,28,56,7.21,6,Rain,130
2012-8-30,82,78,74,72,69,68,83,75,65,30.01,29.75,29.63,10,6,0,37,24,48,1.72,4,Rain-Thunderstorm,179
2012-8-31,84,82,79,73,72,69,77,71,62,30.14,30.10,30.02,10,10,3,14,10,20,0.00,3,,162